Weather History for Frederick, OK

Change the Weather History Date:

Wednesday, June 12, 2013

  Actual Average (KLTS) Record (KLTS)
Temperature  
Mean Temperature 86 °F -  
Max Temperature 99 °F 88 °F 105 °F (1998)
Min Temperature 73 °F 65 °F 64 °F (1998)
Cooling Degree Days 21    
Growing Degree Days 36 (Base 50)    
Moisture  
Dew Point 62 °F    
Average Humidity 46    
Maximum Humidity 64    
Minimum Humidity 29    
Precipitation  
Precipitation 0.00 in - - ()
Sea Level Pressure  
Sea Level Pressure 29.87 in    
Wind  
Wind Speed 14 mph (South)    
Max Wind Speed 23 mph    
Max Gust Speed 31 mph    
Visibility 10 miles    
Events      
Averages and records for this station are not official NWS values.
T = Trace of Precipitation, MM = Missing Value Source: NWS Daily Summary

Daily Weather History Graph

Daily Weather History Graph

Search for Another Location

Airport:

Trip Planner

Search our weather history database for the weather conditions in past years. The results will help you decide how hot, cold, wet, or windy it might be!

Date:

Astronomy

Jun. 12, 2013 Rise Set
Actual Time 6:23 AM CDT 8:48 PM CDT
Civil Twilight 5:53 AM CDT 9:18 PM CDT
Nautical Twilight 5:17 AM CDT 9:54 PM CDT
Astronomical Twilight 4:38 AM CDT 10:33 PM CDT
Moon 9:56 AM CDT (6/12) 11:34 PM CDT (6/12)
Length of Visible Light 15h 24m
Length of Day
14h 25m
Waxing Crescent, 14% of the Moon is Illuminated
Jun 12
Waxing Crescent
Jun 16
First Quarter
Jun 23
Full
Jun 29
Last Quarter
Jul 8
New

Hourly Weather History & Observations

Time (CDT) Temp. Heat Index Dew Point Humidity Pressure Visibility Wind Dir Wind Speed Gust Speed Precip Events Conditions
12:53 AM 79.0 °F - 64.0 °F 60% 29.82 in 10.0 mi South 11.5 mph - N/A   Clear
1:53 AM 78.1 °F - 64.0 °F 62% 29.82 in 10.0 mi South 11.5 mph - N/A   Clear
2:53 AM 79.0 °F - 64.9 °F 62% 29.81 in 10.0 mi South 13.8 mph - N/A   Clear
3:53 AM 78.1 °F - 64.0 °F 62% 29.83 in 10.0 mi South 12.7 mph - N/A   Clear
4:53 AM 77.0 °F - 63.0 °F 62% 29.84 in 10.0 mi SSW 11.5 mph - N/A   Clear
5:53 AM 75.9 °F - 62.1 °F 62% 29.87 in 10.0 mi SSW 11.5 mph - N/A   Clear
6:53 AM 73.9 °F - 61.0 °F 64% 29.90 in 10.0 mi SSW 8.1 mph - N/A   Clear
7:53 AM 78.1 °F - 60.1 °F 54% 29.91 in 10.0 mi SSW 15.0 mph - N/A   Clear
8:53 AM 82.0 °F 83.0 °F 62.1 °F 51% 29.93 in 10.0 mi SSW 19.6 mph - N/A   Clear
9:53 AM 84.9 °F 85.9 °F 63.0 °F 48% 29.92 in 10.0 mi SSW 23.0 mph 28.8 mph N/A   Clear
10:53 AM 88.0 °F 89.3 °F 64.0 °F 45% 29.92 in 10.0 mi SSW 18.4 mph - N/A   Clear
11:53 AM 91.0 °F 91.9 °F 63.0 °F 39% 29.92 in 10.0 mi SW 18.4 mph 25.3 mph N/A   Clear
12:53 PM 93.0 °F 93.8 °F 62.1 °F 36% 29.91 in 10.0 mi South 15.0 mph 27.6 mph N/A   Clear
1:53 PM 95.0 °F 95.6 °F 62.1 °F 33% 29.89 in 10.0 mi SSW 18.4 mph 23.0 mph N/A   Clear
2:53 PM 97.0 °F 97.8 °F 62.1 °F 31% 29.87 in 10.0 mi SSW 21.9 mph 31.1 mph N/A   Clear
3:53 PM 98.1 °F 98.6 °F 61.0 °F 29% 29.86 in 10.0 mi South 18.4 mph 25.3 mph N/A   Clear
4:53 PM 99.0 °F 100.5 °F 62.1 °F 30% 29.84 in 10.0 mi South 21.9 mph 26.5 mph N/A   Clear
5:53 PM 98.1 °F 98.6 °F 61.0 °F 29% 29.83 in 10.0 mi South 15.0 mph 24.2 mph N/A   Clear
6:53 PM 97.0 °F 96.9 °F 60.1 °F 29% 29.82 in 10.0 mi South 16.1 mph 26.5 mph N/A   Clear
7:53 PM 95.0 °F 95.2 °F 61.0 °F 32% 29.83 in 10.0 mi South 15.0 mph - N/A   Clear
8:53 PM 90.0 °F 90.0 °F 61.0 °F 38% 29.85 in 10.0 mi South 9.2 mph - N/A   Clear
9:53 PM 86.0 °F 86.3 °F 62.1 °F 44% 29.86 in 10.0 mi SE 8.1 mph - N/A   Clear
10:53 PM 82.9 °F 84.6 °F 64.9 °F 54% 29.88 in 10.0 mi SSE 8.1 mph - N/A   Clear
11:53 PM 81.0 °F 82.7 °F 64.9 °F 58% 29.89 in 10.0 mi South 9.2 mph - N/A   Clear